owner,sensor,date,latitude,longitude,vertical_datum,wind_speed,wind_to_direction,wind_speed_of_gust,qcFlag 
WAVCIS,ioos:station:WAVCIS:CSI16:1,2009-05-01T00:00:00Z,29.4012,-89.0355,10.0,6.896,147.0,,'11111222,11111222,99999999' 
WAVCIS,ioos:station:WAVCIS:CSI16:1,2009-05-01T01:00:00Z,29.4012,-89.0355,10.0,6.226,138.0,,'11111222,11111222,99999999' 
WAVCIS,ioos:station:WAVCIS:CSI16:1,2009-05-01T02:00:00Z,29.4012,-89.0355,10.0,7.25,135.0,,'11111222,11111222,99999999' 
WAVCIS,ioos:station:WAVCIS:CSI16:1,2009-05-01T03:00:00Z,29.4012,-89.0355,10.0,7.99,140.0,,'11111222,11111222,99999999' 
WAVCIS,ioos:station:WAVCIS:CSI16:1,2009-05-01T04:00:00Z,29.4012,-89.0355,10.0,8.46,146.0,,'11111222,11111222,99999999' 
WAVCIS,ioos:station:WAVCIS:CSI16:1,2009-05-01T05:00:00Z,29.4012,-89.0355,10.0,8.92,151.0,,'11111222,11111222,99999999' 
WAVCIS,ioos:station:WAVCIS:CSI16:1,2009-05-01T06:00:00Z,29.4012,-89.0355,10.0,8.15,155.0,,'11111222,11111222,99999999' 
WAVCIS,ioos:station:WAVCIS:CSI16:1,2009-05-01T07:00:00Z,29.4012,-89.0355,10.0,8.2,158.0,,'11111222,11111222,99999999' 
WAVCIS,ioos:station:WAVCIS:CSI16:1,2009-05-01T08:00:00Z,29.4012,-89.0355,10.0,7.87,163.0,,'11111222,11111222,99999999' 
WAVCIS,ioos:station:WAVCIS:CSI16:1,2009-05-01T09:00:00Z,29.4012,-89.0355,10.0,7.64,158.0,,'11111222,11111222,99999999' 
WAVCIS,ioos:station:WAVCIS:CSI16:1,2009-05-01T10:00:00Z,29.4012,-89.0355,10.0,7.72,159.0,,'11111222,11111222,99999999' 
WAVCIS,ioos:station:WAVCIS:CSI16:1,2009-05-01T11:00:00Z,29.4012,-89.0355,10.0,7.3,165.0,,'11111222,11111222,99999999' 
WAVCIS,ioos:station:WAVCIS:CSI16:1,2009-05-01T12:00:00Z,29.4012,-89.0355,10.0,5.259,177.0,,'11111222,11111222,99999999' 
WAVCIS,ioos:station:WAVCIS:CSI16:1,2009-05-01T13:00:00Z,29.4012,-89.0355,10.0,3.93,171.0,,'11111222,11111222,99999999' 
WAVCIS,ioos:station:WAVCIS:CSI16:1,2009-05-01T14:00:00Z,29.4012,-89.0355,10.0,2.984,162.0,,'11111222,11111222,99999999' 
WAVCIS,ioos:station:WAVCIS:CSI16:1,2009-05-01T15:00:00Z,29.4012,-89.0355,10.0,2.707,169.0,,'11111222,11111222,99999999' 
WAVCIS,ioos:station:WAVCIS:CSI16:1,2009-05-01T16:00:00Z,29.4012,-89.0355,10.0,3.315,165.0,,'11111222,11111222,99999999' 
WAVCIS,ioos:station:WAVCIS:CSI16:1,2009-05-01T17:00:00Z,29.4012,-89.0355,10.0,3.12,162.0,,'11111222,11111222,99999999' 
WAVCIS,ioos:station:WAVCIS:CSI16:1,2009-05-01T18:00:00Z,29.4012,-89.0355,10.0,4.249,149.0,,'11111222,11111222,99999999' 
WAVCIS,ioos:station:WAVCIS:CSI16:1,2009-05-01T19:00:00Z,29.4012,-89.0355,10.0,5.225,144.0,,'11111222,11111222,99999999' 
WAVCIS,ioos:station:WAVCIS:CSI16:1,2009-05-01T20:00:00Z,29.4012,-89.0355,10.0,4.902,146.0,,'11111222,11111222,99999999' 
WAVCIS,ioos:station:WAVCIS:CSI16:1,2009-05-01T21:00:00Z,29.4012,-89.0355,10.0,5.338,149.0,,'11111222,11111222,99999999' 
WAVCIS,ioos:station:WAVCIS:CSI16:1,2009-05-01T22:00:00Z,29.4012,-89.0355,10.0,5.988,164.0,,'11111222,11111222,99999999' 
WAVCIS,ioos:station:WAVCIS:CSI16:1,2009-05-01T23:00:00Z,29.4012,-89.0355,10.0,5.993,161.0,,'11111222,11111222,99999999' 
WAVCIS,ioos:station:WAVCIS:CSI16:1,2009-05-02T00:00:00Z,29.4012,-89.0355,10.0,5.241,160.0,,'11111222,11111222,99999999' 
WAVCIS,ioos:station:WAVCIS:CSI16:1,2009-05-02T01:00:00Z,29.4012,-89.0355,10.0,5.24,163.0,,'11111222,11111222,99999999' 
WAVCIS,ioos:station:WAVCIS:CSI16:1,2009-05-02T02:00:00Z,29.4012,-89.0355,10.0,6.672,160.0,,'11111222,11111222,99999999' 
WAVCIS,ioos:station:WAVCIS:CSI16:1,2009-05-02T03:00:00Z,29.4012,-89.0355,10.0,6.924,164.0,,'11111222,11111222,99999999' 
WAVCIS,ioos:station:WAVCIS:CSI16:1,2009-05-02T04:00:00Z,29.4012,-89.0355,10.0,6.208,172.0,,'11111222,11111222,99999999' 
WAVCIS,ioos:station:WAVCIS:CSI16:1,2009-05-02T05:00:00Z,29.4012,-89.0355,10.0,6.259,172.0,,'11111222,11111222,99999999' 
WAVCIS,ioos:station:WAVCIS:CSI16:1,2009-05-02T06:00:00Z,29.4012,-89.0355,10.0,5.679,174.0,,'11111222,11111222,99999999' 
WAVCIS,ioos:station:WAVCIS:CSI16:1,2009-05-02T07:00:00Z,29.4012,-89.0355,10.0,5.179,178.0,,'11111222,11111222,99999999' 
WAVCIS,ioos:station:WAVCIS:CSI16:1,2009-05-02T08:00:00Z,29.4012,-89.0355,10.0,4.272,179.0,,'11111222,11111222,99999999' 
WAVCIS,ioos:station:WAVCIS:CSI16:1,2009-05-02T09:00:00Z,29.4012,-89.0355,10.0,4.787,178.0,,'11111222,11111222,99999999' 
WAVCIS,ioos:station:WAVCIS:CSI16:1,2009-05-02T10:00:00Z,29.4012,-89.0355,10.0,3.602,190.0,,'11111222,11111222,99999999' 
WAVCIS,ioos:station:WAVCIS:CSI16:1,2009-05-02T11:00:00Z,29.4012,-89.0355,10.0,3.506,195.0,,'11111222,11111222,99999999' 
WAVCIS,ioos:station:WAVCIS:CSI16:1,2009-05-02T12:00:00Z,29.4012,-89.0355,10.0,3.465,188.0,,'11111222,11111222,99999999' 
WAVCIS,ioos:station:WAVCIS:CSI16:1,2009-05-02T13:00:00Z,29.4012,-89.0355,10.0,4.136,177.0,,'11111222,11111222,99999999' 
WAVCIS,ioos:station:WAVCIS:CSI16:1,2009-05-02T14:00:00Z,29.4012,-89.0355,10.0,4.641,173.0,,'11111222,11111222,99999999' 
WAVCIS,ioos:station:WAVCIS:CSI16:1,2009-05-02T15:00:00Z,29.4012,-89.0355,10.0,5.297,172.0,,'11111222,11111222,99999999' 
WAVCIS,ioos:station:WAVCIS:CSI16:1,2009-05-02T16:00:00Z,29.4012,-89.0355,10.0,5.207,176.0,,'11111222,11111222,99999999' 
WAVCIS,ioos:station:WAVCIS:CSI16:1,2009-05-02T17:00:00Z,29.4012,-89.0355,10.0,6.274,179.0,,'11111222,11111222,99999999' 
WAVCIS,ioos:station:WAVCIS:CSI16:1,2009-05-02T18:00:00Z,29.4012,-89.0355,10.0,7.64,177.0,,'11111222,11111222,99999999' 
WAVCIS,ioos:station:WAVCIS:CSI16:1,2009-05-02T19:00:00Z,29.4012,-89.0355,10.0,6.437,182.0,,'11111222,11111222,99999999' 
WAVCIS,ioos:station:WAVCIS:CSI16:1,2009-05-02T20:00:00Z,29.4012,-89.0355,10.0,6.368,173.0,,'11111222,11111222,99999999' 
WAVCIS,ioos:station:WAVCIS:CSI16:1,2009-05-02T21:00:00Z,29.4012,-89.0355,10.0,7.16,179.0,,'11111222,11111222,99999999' 
WAVCIS,ioos:station:WAVCIS:CSI16:1,2009-05-02T22:00:00Z,29.4012,-89.0355,10.0,6.648,179.0,,'11111222,11111222,99999999' 
WAVCIS,ioos:station:WAVCIS:CSI16:1,2009-05-02T23:00:00Z,29.4012,-89.0355,10.0,6.896,184.0,,'11111222,11111222,99999999' 
WAVCIS,ioos:station:WAVCIS:CSI16:1,2009-05-03T00:00:00Z,29.4012,-89.0355,10.0,7.01,181.0,,'11111222,11111222,99999999' 
WAVCIS,ioos:station:WAVCIS:CSI16:1,2009-05-03T01:00:00Z,29.4012,-89.0355,10.0,7.95,179.0,,'11111222,11111222,99999999' 
WAVCIS,ioos:station:WAVCIS:CSI16:1,2009-05-03T02:00:00Z,29.4012,-89.0355,10.0,7.79,177.0,,'11111222,11111222,99999999' 
WAVCIS,ioos:station:WAVCIS:CSI16:1,2009-05-03T03:00:00Z,29.4012,-89.0355,10.0,9.35,178.0,,'11111222,11111222,99999999' 
WAVCIS,ioos:station:WAVCIS:CSI16:1,2009-05-03T04:00:00Z,29.4012,-89.0355,10.0,8.46,179.0,,'11111222,11111222,99999999' 
WAVCIS,ioos:station:WAVCIS:CSI16:1,2009-05-03T05:00:00Z,29.4012,-89.0355,10.0,8.58,176.0,,'11111222,11111222,99999999' 
WAVCIS,ioos:station:WAVCIS:CSI16:1,2009-05-03T06:00:00Z,29.4012,-89.0355,10.0,8.03,178.0,,'11111222,11111222,99999999' 
WAVCIS,ioos:station:WAVCIS:CSI16:1,2009-05-03T07:00:00Z,29.4012,-89.0355,10.0,5.29,190.0,,'11111222,11111222,99999999' 
WAVCIS,ioos:station:WAVCIS:CSI16:1,2009-05-03T08:00:00Z,29.4012,-89.0355,10.0,5.504,177.0,,'11111222,11111222,99999999' 
WAVCIS,ioos:station:WAVCIS:CSI16:1,2009-05-03T09:00:00Z,29.4012,-89.0355,10.0,5.832,180.0,,'11111222,11111222,99999999' 
WAVCIS,ioos:station:WAVCIS:CSI16:1,2009-05-03T10:00:00Z,29.4012,-89.0355,10.0,6.139,175.0,,'11111222,11111222,99999999' 
WAVCIS,ioos:station:WAVCIS:CSI16:1,2009-05-03T11:00:00Z,29.4012,-89.0355,10.0,7.39,177.0,,'11111222,11111222,99999999' 
WAVCIS,ioos:station:WAVCIS:CSI16:1,2009-05-03T12:00:00Z,29.4012,-89.0355,10.0,9.47,167.0,,'11111222,11111222,99999999' 
WAVCIS,ioos:station:WAVCIS:CSI16:1,2009-05-03T13:00:00Z,29.4012,-89.0355,10.0,7.34,175.0,,'11111222,11111222,99999999' 
WAVCIS,ioos:station:WAVCIS:CSI16:1,2009-05-03T14:00:00Z,29.4012,-89.0355,10.0,8.77,177.0,,'11111222,11111222,99999999' 
WAVCIS,ioos:station:WAVCIS:CSI16:1,2009-05-03T15:00:00Z,29.4012,-89.0355,10.0,10.73,172.0,,'11111222,11111222,99999999' 
WAVCIS,ioos:station:WAVCIS:CSI16:1,2009-05-03T16:00:00Z,29.4012,-89.0355,10.0,9.2,183.0,,'11111222,11111222,99999999' 
WAVCIS,ioos:station:WAVCIS:CSI16:1,2009-05-03T17:00:00Z,29.4012,-89.0355,10.0,9.64,180.0,,'11111222,11111222,99999999' 
WAVCIS,ioos:station:WAVCIS:CSI16:1,2009-05-03T18:00:00Z,29.4012,-89.0355,10.0,8.55,183.0,,'11111222,11111222,99999999' 
WAVCIS,ioos:station:WAVCIS:CSI16:1,2009-05-03T19:00:00Z,29.4012,-89.0355,10.0,7.63,182.0,,'11111222,11111222,99999999' 
WAVCIS,ioos:station:WAVCIS:CSI16:1,2009-05-03T20:00:00Z,29.4012,-89.0355,10.0,7.48,178.0,,'11111222,11111222,99999999' 
WAVCIS,ioos:station:WAVCIS:CSI16:1,2009-05-03T21:00:00Z,29.4012,-89.0355,10.0,6.053,176.0,,'11111222,11111222,99999999' 
WAVCIS,ioos:station:WAVCIS:CSI16:1,2009-05-03T22:00:00Z,29.4012,-89.0355,10.0,5.518,168.0,,'11111222,11111222,99999999' 
WAVCIS,ioos:station:WAVCIS:CSI16:1,2009-05-03T23:00:00Z,29.4012,-89.0355,10.0,4.756,169.0,,'11111222,11111222,99999999' 
WAVCIS,ioos:station:WAVCIS:CSI16:1,2009-05-04T00:00:00Z,29.4012,-89.0355,10.0,3.85,151.0,,'11111222,11111222,99999999' 
WAVCIS,ioos:station:WAVCIS:CSI16:1,2009-05-04T01:00:00Z,29.4012,-89.0355,10.0,5.536,144.0,,'11111222,11111222,99999999' 
WAVCIS,ioos:station:WAVCIS:CSI16:1,2009-05-04T02:00:00Z,29.4012,-89.0355,10.0,8.26,154.0,,'11111222,11111222,99999999' 
WAVCIS,ioos:station:WAVCIS:CSI16:1,2009-05-04T03:00:00Z,29.4012,-89.0355,10.0,9.92,164.0,,'11111222,11111222,99999999' 
WAVCIS,ioos:station:WAVCIS:CSI16:1,2009-05-04T04:00:00Z,29.4012,-89.0355,10.0,9.72,168.0,,'11111222,11111222,99999999' 
WAVCIS,ioos:station:WAVCIS:CSI16:1,2009-05-04T05:00:00Z,29.4012,-89.0355,10.0,9.25,181.0,,'11111222,11111222,99999999' 
WAVCIS,ioos:station:WAVCIS:CSI16:1,2009-05-04T06:00:00Z,29.4012,-89.0355,10.0,8.26,187.0,,'11111222,11111222,99999999' 
WAVCIS,ioos:station:WAVCIS:CSI16:1,2009-05-04T07:00:00Z,29.4012,-89.0355,10.0,7.92,190.0,,'11111222,11111222,99999999' 
WAVCIS,ioos:station:WAVCIS:CSI16:1,2009-05-04T08:00:00Z,29.4012,-89.0355,10.0,6.2,208.0,,'11111222,11111222,99999999' 
WAVCIS,ioos:station:WAVCIS:CSI16:1,2009-05-04T09:00:00Z,29.4012,-89.0355,10.0,5.626,213.0,,'11111222,11111222,99999999' 
WAVCIS,ioos:station:WAVCIS:CSI16:1,2009-05-04T10:00:00Z,29.4012,-89.0355,10.0,6.691,202.0,,'11111222,11111222,99999999' 
WAVCIS,ioos:station:WAVCIS:CSI16:1,2009-05-04T11:00:00Z,29.4012,-89.0355,10.0,7.22,204.0,,'11111222,11111222,99999999' 
WAVCIS,ioos:station:WAVCIS:CSI16:1,2009-05-04T12:00:00Z,29.4012,-89.0355,10.0,8.89,204.0,,'11111222,11111222,99999999' 
WAVCIS,ioos:station:WAVCIS:CSI16:1,2009-05-04T13:00:00Z,29.4012,-89.0355,10.0,9.4,193.0,,'11111222,11111222,99999999' 
WAVCIS,ioos:station:WAVCIS:CSI16:1,2009-05-04T14:00:00Z,29.4012,-89.0355,10.0,7.33,208.0,,'11111222,11111222,99999999' 
WAVCIS,ioos:station:WAVCIS:CSI16:1,2009-05-04T15:00:00Z,29.4012,-89.0355,10.0,7.2,220.0,,'11111222,11111222,99999999' 
WAVCIS,ioos:station:WAVCIS:CSI16:1,2009-05-04T16:00:00Z,29.4012,-89.0355,10.0,7.9,223.0,,'11111222,11111222,99999999' 
WAVCIS,ioos:station:WAVCIS:CSI16:1,2009-05-04T17:00:00Z,29.4012,-89.0355,10.0,9.75,205.0,,'11111222,11111222,99999999' 
WAVCIS,ioos:station:WAVCIS:CSI16:1,2009-05-04T18:00:00Z,29.4012,-89.0355,10.0,10.93,221.0,,'11111222,11111222,99999999' 
WAVCIS,ioos:station:WAVCIS:CSI16:1,2009-05-04T19:00:00Z,29.4012,-89.0355,10.0,13.63,231.0,,'11111222,11111222,99999999' 
WAVCIS,ioos:station:WAVCIS:CSI16:1,2009-05-04T20:00:00Z,29.4012,-89.0355,10.0,7.53,227.0,,'11111222,11111222,99999999' 
WAVCIS,ioos:station:WAVCIS:CSI16:1,2009-05-04T21:00:00Z,29.4012,-89.0355,10.0,6.843,249.0,,'11111222,11111222,99999999' 
WAVCIS,ioos:station:WAVCIS:CSI16:1,2009-05-04T22:00:00Z,29.4012,-89.0355,10.0,7.99,220.0,,'11111222,11111222,99999999' 
WAVCIS,ioos:station:WAVCIS:CSI16:1,2009-05-04T23:00:00Z,29.4012,-89.0355,10.0,6.539,222.0,,'11111222,11111222,99999999' 
WAVCIS,ioos:station:WAVCIS:CSI16:1,2009-05-05T00:00:00Z,29.4012,-89.0355,10.0,5.598,224.0,,'11111222,11111222,99999999' 
WAVCIS,ioos:station:WAVCIS:CSI16:1,2009-05-05T01:00:00Z,29.4012,-89.0355,10.0,4.352,200.0,,'11111222,11111222,99999999' 
WAVCIS,ioos:station:WAVCIS:CSI16:1,2009-05-05T02:00:00Z,29.4012,-89.0355,10.0,3.901,185.0,,'11111222,11111222,99999999' 
WAVCIS,ioos:station:WAVCIS:CSI16:1,2009-05-05T03:00:00Z,29.4012,-89.0355,10.0,6.237,183.0,,'11111222,11111222,99999999' 
WAVCIS,ioos:station:WAVCIS:CSI16:1,2009-05-05T04:00:00Z,29.4012,-89.0355,10.0,5.126,184.0,,'11111222,11111222,99999999' 
WAVCIS,ioos:station:WAVCIS:CSI16:1,2009-05-05T05:00:00Z,29.4012,-89.0355,10.0,5.849,196.0,,'11111222,11111222,99999999' 
WAVCIS,ioos:station:WAVCIS:CSI16:1,2009-05-05T06:00:00Z,29.4012,-89.0355,10.0,6.406,194.0,,'11111222,11111222,99999999' 
WAVCIS,ioos:station:WAVCIS:CSI16:1,2009-05-05T07:00:00Z,29.4012,-89.0355,10.0,4.795,207.0,,'11111222,11111222,99999999' 
WAVCIS,ioos:station:WAVCIS:CSI16:1,2009-05-05T08:00:00Z,29.4012,-89.0355,10.0,4.617,192.0,,'11111222,11111222,99999999' 
WAVCIS,ioos:station:WAVCIS:CSI16:1,2009-05-05T09:00:00Z,29.4012,-89.0355,10.0,6.758,196.0,,'11111222,11111222,99999999' 
WAVCIS,ioos:station:WAVCIS:CSI16:1,2009-05-05T10:00:00Z,29.4012,-89.0355,10.0,5.426,199.0,,'11111222,11111222,99999999' 
WAVCIS,ioos:station:WAVCIS:CSI16:1,2009-05-05T11:00:00Z,29.4012,-89.0355,10.0,6.065,225.0,,'11111222,11111222,99999999' 
WAVCIS,ioos:station:WAVCIS:CSI16:1,2009-05-05T12:00:00Z,29.4012,-89.0355,10.0,2.536,228.0,,'11111222,11111222,99999999' 
WAVCIS,ioos:station:WAVCIS:CSI16:1,2009-05-05T13:00:00Z,29.4012,-89.0355,10.0,1.451,199.0,,'11111222,11111222,99999999' 
WAVCIS,ioos:station:WAVCIS:CSI16:1,2009-05-05T14:00:00Z,29.4012,-89.0355,10.0,1.942,177.0,,'11111222,11111222,99999999' 
WAVCIS,ioos:station:WAVCIS:CSI16:1,2009-05-05T15:00:00Z,29.4012,-89.0355,10.0,2.251,180.0,,'11111222,11111222,99999999' 
WAVCIS,ioos:station:WAVCIS:CSI16:1,2009-05-05T16:00:00Z,29.4012,-89.0355,10.0,2.894,179.0,,'11111222,11111222,99999999' 
WAVCIS,ioos:station:WAVCIS:CSI16:1,2009-05-05T17:00:00Z,29.4012,-89.0355,10.0,3.98,186.0,,'11111222,11111222,99999999' 
WAVCIS,ioos:station:WAVCIS:CSI16:1,2009-05-05T18:00:00Z,29.4012,-89.0355,10.0,4.376,189.0,,'11111222,11111222,99999999' 
WAVCIS,ioos:station:WAVCIS:CSI16:1,2009-05-05T19:00:00Z,29.4012,-89.0355,10.0,4.514,201.0,,'11111222,11111222,99999999' 
WAVCIS,ioos:station:WAVCIS:CSI16:1,2009-05-05T20:00:00Z,29.4012,-89.0355,10.0,4.499,195.0,,'11111222,11111222,99999999' 
WAVCIS,ioos:station:WAVCIS:CSI16:1,2009-05-05T21:00:00Z,29.4012,-89.0355,10.0,5.366,194.0,,'11111222,11111222,99999999' 
WAVCIS,ioos:station:WAVCIS:CSI16:1,2009-05-05T22:00:00Z,29.4012,-89.0355,10.0,5.397,194.0,,'11111222,11111222,99999999' 
WAVCIS,ioos:station:WAVCIS:CSI16:1,2009-05-05T23:00:00Z,29.4012,-89.0355,10.0,4.326,194.0,,'11111222,11111222,99999999' 
WAVCIS,ioos:station:WAVCIS:CSI16:1,2009-05-06T00:00:00Z,29.4012,-89.0355,10.0,4.379,184.0,,'11111222,11111222,99999999' 
WAVCIS,ioos:station:WAVCIS:CSI16:1,2009-05-06T01:00:00Z,29.4012,-89.0355,10.0,5.795,171.0,,'11111222,11111222,99999999' 
WAVCIS,ioos:station:WAVCIS:CSI16:1,2009-05-06T02:00:00Z,29.4012,-89.0355,10.0,4.898,174.0,,'11111222,11111222,99999999' 
WAVCIS,ioos:station:WAVCIS:CSI16:1,2009-05-06T03:00:00Z,29.4012,-89.0355,10.0,5.919,170.0,,'11111222,11111222,99999999' 
WAVCIS,ioos:station:WAVCIS:CSI16:1,2009-05-06T04:00:00Z,29.4012,-89.0355,10.0,8.17,163.0,,'11111222,11111222,99999999' 
WAVCIS,ioos:station:WAVCIS:CSI16:1,2009-05-06T05:00:00Z,29.4012,-89.0355,10.0,8.42,167.0,,'11111222,11111222,99999999' 
WAVCIS,ioos:station:WAVCIS:CSI16:1,2009-05-06T06:00:00Z,29.4012,-89.0355,10.0,8.78,164.0,,'11111222,11111222,99999999' 
WAVCIS,ioos:station:WAVCIS:CSI16:1,2009-05-06T07:00:00Z,29.4012,-89.0355,10.0,8.25,168.0,,'11111222,11111222,99999999' 
WAVCIS,ioos:station:WAVCIS:CSI16:1,2009-05-06T08:00:00Z,29.4012,-89.0355,10.0,8.63,175.0,,'11111222,11111222,99999999' 
WAVCIS,ioos:station:WAVCIS:CSI16:1,2009-05-06T09:00:00Z,29.4012,-89.0355,10.0,9.3,179.0,,'11111222,11111222,99999999' 
WAVCIS,ioos:station:WAVCIS:CSI16:1,2009-05-06T10:00:00Z,29.4012,-89.0355,10.0,9.45,177.0,,'11111222,11111222,99999999' 
WAVCIS,ioos:station:WAVCIS:CSI16:1,2009-05-06T11:00:00Z,29.4012,-89.0355,10.0,8.32,178.0,,'11111222,11111222,99999999' 
WAVCIS,ioos:station:WAVCIS:CSI16:1,2009-05-06T12:00:00Z,29.4012,-89.0355,10.0,8.41,176.0,,'11111222,11111222,99999999' 
WAVCIS,ioos:station:WAVCIS:CSI16:1,2009-05-06T13:00:00Z,29.4012,-89.0355,10.0,7.3,181.0,,'11111222,11111222,99999999' 
WAVCIS,ioos:station:WAVCIS:CSI16:1,2009-05-06T14:00:00Z,29.4012,-89.0355,10.0,6.401,178.0,,'11111222,11111222,99999999' 
WAVCIS,ioos:station:WAVCIS:CSI16:1,2009-05-06T15:00:00Z,29.4012,-89.0355,10.0,6.161,179.0,,'11111222,11111222,99999999' 
WAVCIS,ioos:station:WAVCIS:CSI16:1,2009-05-06T16:00:00Z,29.4012,-89.0355,10.0,6.441,182.0,,'11111222,11111222,99999999' 
WAVCIS,ioos:station:WAVCIS:CSI16:1,2009-05-06T17:00:00Z,29.4012,-89.0355,10.0,7.41,184.0,,'11111222,11111222,99999999' 
WAVCIS,ioos:station:WAVCIS:CSI16:1,2009-05-06T18:00:00Z,29.4012,-89.0355,10.0,7.3,185.0,,'11111222,11111222,99999999' 
WAVCIS,ioos:station:WAVCIS:CSI16:1,2009-05-06T19:00:00Z,29.4012,-89.0355,10.0,7.58,182.0,,'11111222,11111222,99999999' 
WAVCIS,ioos:station:WAVCIS:CSI16:1,2009-05-06T20:00:00Z,29.4012,-89.0355,10.0,4.923,182.0,,'11111222,11111222,99999999' 
WAVCIS,ioos:station:WAVCIS:CSI16:1,2009-05-06T21:00:00Z,29.4012,-89.0355,10.0,3.526,178.0,,'11111222,11111222,99999999' 
WAVCIS,ioos:station:WAVCIS:CSI16:1,2009-05-06T22:00:00Z,29.4012,-89.0355,10.0,2.906,166.0,,'11111222,11111222,99999999' 
WAVCIS,ioos:station:WAVCIS:CSI16:1,2009-05-06T23:00:00Z,29.4012,-89.0355,10.0,4.631,162.0,,'11111222,11111222,99999999' 
WAVCIS,ioos:station:WAVCIS:CSI16:1,2009-05-07T00:00:00Z,29.4012,-89.0355,10.0,5.536,172.0,,'11111222,11111222,99999999' 
WAVCIS,ioos:station:WAVCIS:CSI16:1,2009-05-07T01:00:00Z,29.4012,-89.0355,10.0,5.133,170.0,,'11111222,11111222,99999999' 
WAVCIS,ioos:station:WAVCIS:CSI16:1,2009-05-07T02:00:00Z,29.4012,-89.0355,10.0,6.392,167.0,,'11111222,11111222,99999999' 
WAVCIS,ioos:station:WAVCIS:CSI16:1,2009-05-07T03:00:00Z,29.4012,-89.0355,10.0,7.54,171.0,,'11111222,11111222,99999999' 
WAVCIS,ioos:station:WAVCIS:CSI16:1,2009-05-07T04:00:00Z,29.4012,-89.0355,10.0,8.08,176.0,,'11111222,11111222,99999999' 
WAVCIS,ioos:station:WAVCIS:CSI16:1,2009-05-07T05:00:00Z,29.4012,-89.0355,10.0,8.35,182.0,,'11111222,11111222,99999999' 
WAVCIS,ioos:station:WAVCIS:CSI16:1,2009-05-07T06:00:00Z,29.4012,-89.0355,10.0,7.39,187.0,,'11111222,11111222,99999999' 
WAVCIS,ioos:station:WAVCIS:CSI16:1,2009-05-07T07:00:00Z,29.4012,-89.0355,10.0,7.18,187.0,,'11111222,11111222,99999999' 
WAVCIS,ioos:station:WAVCIS:CSI16:1,2009-05-07T08:00:00Z,29.4012,-89.0355,10.0,4.636,195.0,,'11111222,11111222,99999999' 
WAVCIS,ioos:station:WAVCIS:CSI16:1,2009-05-07T09:00:00Z,29.4012,-89.0355,10.0,2.025,209.0,,'11111222,11111222,99999999' 
WAVCIS,ioos:station:WAVCIS:CSI16:1,2009-05-07T10:00:00Z,29.4012,-89.0355,10.0,1.044,301.0,,'11111222,11111222,99999999' 
WAVCIS,ioos:station:WAVCIS:CSI16:1,2009-05-07T11:00:00Z,29.4012,-89.0355,10.0,0.715,300.0,,'11111222,11111222,99999999' 
WAVCIS,ioos:station:WAVCIS:CSI16:1,2009-05-07T12:00:00Z,29.4012,-89.0355,10.0,0.501,272.0,,'11111222,11111222,99999999' 
WAVCIS,ioos:station:WAVCIS:CSI16:1,2009-05-07T13:00:00Z,29.4012,-89.0355,10.0,2.22,177.0,,'11111222,11111222,99999999' 
WAVCIS,ioos:station:WAVCIS:CSI16:1,2009-05-07T14:00:00Z,29.4012,-89.0355,10.0,1.904,190.0,,'11111222,11111222,99999999' 
WAVCIS,ioos:station:WAVCIS:CSI16:1,2009-05-07T15:00:00Z,29.4012,-89.0355,10.0,5.08,175.0,,'11111222,11111222,99999999' 
WAVCIS,ioos:station:WAVCIS:CSI16:1,2009-05-07T16:00:00Z,29.4012,-89.0355,10.0,6.495,185.0,,'11111222,11111222,99999999' 
WAVCIS,ioos:station:WAVCIS:CSI16:1,2009-05-07T17:00:00Z,29.4012,-89.0355,10.0,6.387,191.0,,'11111222,11111222,99999999' 
WAVCIS,ioos:station:WAVCIS:CSI16:1,2009-05-07T18:00:00Z,29.4012,-89.0355,10.0,6.914,189.0,,'11111222,11111222,99999999' 
WAVCIS,ioos:station:WAVCIS:CSI16:1,2009-05-07T19:00:00Z,29.4012,-89.0355,10.0,7.91,188.0,,'11111222,11111222,99999999' 
WAVCIS,ioos:station:WAVCIS:CSI16:1,2009-05-07T20:00:00Z,29.4012,-89.0355,10.0,7.75,189.0,,'11111222,11111222,99999999' 
WAVCIS,ioos:station:WAVCIS:CSI16:1,2009-05-07T21:00:00Z,29.4012,-89.0355,10.0,6.787,189.0,,'11111222,11111222,99999999' 
WAVCIS,ioos:station:WAVCIS:CSI16:1,2009-05-07T22:00:00Z,29.4012,-89.0355,10.0,6.777,192.0,,'11111222,11111222,99999999' 
WAVCIS,ioos:station:WAVCIS:CSI16:1,2009-05-07T23:00:00Z,29.4012,-89.0355,10.0,5.233,202.0,,'11111222,11111222,99999999' 
WAVCIS,ioos:station:WAVCIS:CSI16:1,2009-05-08T00:00:00Z,29.4012,-89.0355,10.0,6.383,212.0,,'11111222,11111222,99999999' 
WAVCIS,ioos:station:WAVCIS:CSI16:1,2009-05-08T01:00:00Z,29.4012,-89.0355,10.0,4.33,194.0,,'11111222,11111222,99999999' 
WAVCIS,ioos:station:WAVCIS:CSI16:1,2009-05-08T02:00:00Z,29.4012,-89.0355,10.0,6.126,193.0,,'11111222,11111222,99999999' 
WAVCIS,ioos:station:WAVCIS:CSI16:1,2009-05-08T03:00:00Z,29.4012,-89.0355,10.0,4.501,199.0,,'11111222,11111222,99999999' 
WAVCIS,ioos:station:WAVCIS:CSI16:1,2009-05-08T04:00:00Z,29.4012,-89.0355,10.0,4.951,191.0,,'11111222,11111222,99999999' 
WAVCIS,ioos:station:WAVCIS:CSI16:1,2009-05-08T05:00:00Z,29.4012,-89.0355,10.0,5.915,192.0,,'11111222,11111222,99999999' 
WAVCIS,ioos:station:WAVCIS:CSI16:1,2009-05-08T06:00:00Z,29.4012,-89.0355,10.0,6.235,189.0,,'11111222,11111222,99999999' 
WAVCIS,ioos:station:WAVCIS:CSI16:1,2009-05-08T07:00:00Z,29.4012,-89.0355,10.0,5.18,192.0,,'11111222,11111222,99999999' 
WAVCIS,ioos:station:WAVCIS:CSI16:1,2009-05-08T08:00:00Z,29.4012,-89.0355,10.0,5.836,193.0,,'11111222,11111222,99999999' 
WAVCIS,ioos:station:WAVCIS:CSI16:1,2009-05-08T09:00:00Z,29.4012,-89.0355,10.0,5.914,201.0,,'11111222,11111222,99999999' 
WAVCIS,ioos:station:WAVCIS:CSI16:1,2009-05-08T10:00:00Z,29.4012,-89.0355,10.0,5.559,195.0,,'11111222,11111222,99999999' 
WAVCIS,ioos:station:WAVCIS:CSI16:1,2009-05-08T11:00:00Z,29.4012,-89.0355,10.0,5.557,189.0,,'11111222,11111222,99999999' 
WAVCIS,ioos:station:WAVCIS:CSI16:1,2009-05-08T12:00:00Z,29.4012,-89.0355,10.0,5.756,189.0,,'11111222,11111222,99999999' 
WAVCIS,ioos:station:WAVCIS:CSI16:1,2009-05-08T13:00:00Z,29.4012,-89.0355,10.0,6.716,182.0,,'11111222,11111222,99999999' 
WAVCIS,ioos:station:WAVCIS:CSI16:1,2009-05-08T14:00:00Z,29.4012,-89.0355,10.0,7.25,178.0,,'11111222,11111222,99999999' 
WAVCIS,ioos:station:WAVCIS:CSI16:1,2009-05-08T15:00:00Z,29.4012,-89.0355,10.0,7.36,176.0,,'11111222,11111222,99999999' 
WAVCIS,ioos:station:WAVCIS:CSI16:1,2009-05-08T16:00:00Z,29.4012,-89.0355,10.0,8.0,179.0,,'11111222,11111222,99999999' 
WAVCIS,ioos:station:WAVCIS:CSI16:1,2009-05-08T17:00:00Z,29.4012,-89.0355,10.0,6.64,184.0,,'11111222,11111222,99999999' 
WAVCIS,ioos:station:WAVCIS:CSI16:1,2009-05-08T18:00:00Z,29.4012,-89.0355,10.0,6.257,187.0,,'11111222,11111222,99999999' 
WAVCIS,ioos:station:WAVCIS:CSI16:1,2009-05-08T19:00:00Z,29.4012,-89.0355,10.0,7.24,187.0,,'11111222,11111222,99999999' 
WAVCIS,ioos:station:WAVCIS:CSI16:1,2009-05-08T20:00:00Z,29.4012,-89.0355,10.0,6.127,179.0,,'11111222,11111222,99999999' 
WAVCIS,ioos:station:WAVCIS:CSI16:1,2009-05-08T21:00:00Z,29.4012,-89.0355,10.0,6.813,173.0,,'11111222,11111222,99999999' 
WAVCIS,ioos:station:WAVCIS:CSI16:1,2009-05-08T22:00:00Z,29.4012,-89.0355,10.0,7.09,172.0,,'11111222,11111222,99999999' 
WAVCIS,ioos:station:WAVCIS:CSI16:1,2009-05-08T23:00:00Z,29.4012,-89.0355,10.0,6.67,177.0,,'11111222,11111222,99999999' 
WAVCIS,ioos:station:WAVCIS:CSI16:1,2009-05-09T00:00:00Z,29.4012,-89.0355,10.0,6.491,173.0,,'11111222,11111222,99999999' 
WAVCIS,ioos:station:WAVCIS:CSI16:1,2009-05-09T01:00:00Z,29.4012,-89.0355,10.0,6.964,173.0,,'11111222,11111222,99999999' 
WAVCIS,ioos:station:WAVCIS:CSI16:1,2009-05-09T02:00:00Z,29.4012,-89.0355,10.0,6.162,172.0,,'11111222,11111222,99999999' 
WAVCIS,ioos:station:WAVCIS:CSI16:1,2009-05-09T03:00:00Z,29.4012,-89.0355,10.0,6.218,174.0,,'11111222,11111222,99999999' 
WAVCIS,ioos:station:WAVCIS:CSI16:1,2009-05-09T04:00:00Z,29.4012,-89.0355,10.0,7.08,164.0,,'11111222,11111222,99999999' 
WAVCIS,ioos:station:WAVCIS:CSI16:1,2009-05-09T05:00:00Z,29.4012,-89.0355,10.0,5.363,165.0,,'11111222,11111222,99999999' 